Location: Stavanger
(58.9670°N, 5.7500°E)
Time: 00:43:59
(UTC+02:00)

ISS - Pass Details

Date: 25 March 2019
Orbit: 408 x 410 km, 51.6° (Epoch: 24 April)

Event Time Altitude Azimuth Distance (km) Brightness Sun altitude
Rises 20:13:26 0° 218° (SW) 2,332 0.3 -9.7°
Reaches altitude 10° 20:16:07 10° 195° (SSW) 1,473 -1.1 -10.1°
Maximum altitude 20:18:06 15° 158° (SSE) 1,202 -1.8 -10.3°
Enters shadow 20:19:03 14° 138° (SE) 1,268 -1.9 -10.4°
